Overview Statistics Trail Chart Weather Telemetry Raw packets
 

This is the latest recevied weather packets stored in our database for station/object HS1AXC-1. If no packets are shown the sender has not sent any weather packets the latest 10 day(s).

<< 1 2 3 4 5 6 >>
Time Temp. Humidity Pressure Rain* Wind** Luminosity Snow
1788665328 36.67° C 56% 1011 hPa - - 0 W/m² -
1788664705 35.56° C 59% 1011 hPa - - 1 W/m² -
1788664084 35.56° C 58% 1011 hPa - - 1 W/m² -
1788663461 35.56° C 59% 1011 hPa - - 1 W/m² -
1788662839 35° C 60% 1011 hPa - - 1 W/m² -
1788662217 35.56° C 60% 1011 hPa - - 1 W/m² -
1788661863 35° C 61% 1011 hPa - - 1 W/m² -
1788661241 34.44° C 62% 1011 hPa - - 1 W/m² -
1788660619 34.44° C 63% 1011 hPa - - 1 W/m² -
1788659997 34.44° C 63% 1011 hPa - - 1 W/m² -
1788659375 33.89° C 64% 1011 hPa - - 1 W/m² -
1788658753 33.89° C 66% 1011 hPa - - 1 W/m² -
1788658132 33.89° C 65% 1011 hPa - - 1 W/m² -
1788657509 34.44° C 67% 1011 hPa - - 1 W/m² -
1788656886 33.89° C 69% 1010 hPa - - 0 W/m² -
1788656264 33.33° C 71% 1010 hPa - - 1 W/m² -
1788655386 33.33° C 74% 1010 hPa - - 1 W/m² -
1788654764 32.78° C 76% 1010 hPa - - 1 W/m² -
1788654142 32.78° C 79% 1010 hPa - - 1 W/m² -
1788653483 32.78° C 84% 1010 hPa - - 0 W/m² -
1788652884 32.22° C 89% 1010 hPa - - 0 W/m² -
1788652240 32.22° C 89% 1010 hPa - - 0 W/m² -
1788651482 32.22° C 90% 1009 hPa - - 0 W/m² -
1788650860 32.22° C 90% 1009 hPa - - 0 W/m² -
1788650446 31.67° C 95% 1009 hPa - - 0 W/m² -

* Rain since midnight (hover to see other rain measurements)
** Current wind speed in m/s (hover to see current wind gust speed)